IZ1UQG-2 Weather Reports


Display with metric or nautical units.
time (UTC)temp
F
wind
direction
speed
MPH
gust
MPH
rain 1hr
in
rain 24hr
in
rain mn
in
humidity
%
barometer
mb
20260901092805 79 114 2.0 6.0 1.01 4.03 1.01 42 1016.9
20260901092403 79 125 2.0 5.0 1.01 4.03 1.01 42 1017.0
20260901091604 79 120 2.0 6.0 1.01 4.03 1.01 45 1016.9
20260901091204 78 131 2.0 6.0 1.01 4.03 1.01 45 1017.0
20260901090403 79 39 1.0 4.0 1.01 4.03 1.01 44 1017.0
20260901090004 78 353 1.0 4.0 1.01 4.03 1.01 44 1017.0
20260901085604 78 341 1.0 4.0 1.01 5.03 1.01 44 1017.0
20260901085204 78 356 1.0 3.0 1.01 5.03 1.01 44 1016.9
20260901084004 76 41 1.0 3.0 0.00 4.03 0.00 44 1017.0
20260901083604 76 24 1.0 3.0 0.00 4.03 0.00 45 1017.1
20260901082803 76 2 2.0 5.0 0.00 4.03 0.00 47 1017.1
20260901082404 75 350 3.0 5.0 0.00 4.03 0.00 48 1017.2
20260901082004 75 343 3.0 6.0 0.00 4.03 0.00 49 1017.2
20260901081604 74 342 3.0 6.0 0.00 4.03 0.00 49 1017.2
20260901080805 72 335 4.0 5.0 0.00 5.04 0.00 51 1017.3
20260901080404 72 329 4.0 6.0 0.00 5.04 0.00 50 1017.2
20260901080004 72 321 4.0 6.0 0.00 5.04 0.00 51 1017.3
20260901075604 72 317 3.0 6.0 0.00 5.04 0.00 51 1017.2
20260901075204 73 325 1.0 6.0 0.00 5.04 0.00 50 1017.1
20260901074804 73 335 1.0 4.0 0.00 5.04 0.00 50 1017.1
20260901074005 72 349 2.0 5.0 0.00 5.04 0.00 50 1017.1
20260901073603 72 354 2.0 5.0 0.00 5.04 0.00 49 1017.1
20260901072803 72 340 2.0 5.0 0.00 5.04 0.00 52 1017.0
20260901072404 72 345 3.0 5.0 0.00 5.04 0.00 50 1017.0
20260901071604 72 344 4.0 8.0 0.00 5.04 0.00 51 1017.0
20260901071204 71 342 4.0 8.0 0.00 5.04 0.00 50 1016.9
20260901070805 71 344 4.0 8.0 0.00 5.04 0.00 51 1016.9
20260901070404 71 340 4.0 8.0 0.00 5.04 0.00 50 1016.9
20260901070004 71 336 3.0 6.0 0.00 5.04 0.00 51 1016.9
20260901065204 70 339 2.0 4.0 0.00 5.04 0.00 51 1016.9
20260901064804 71 354 3.0 7.0 0.00 5.04 0.00 50 1016.8
20260901064403 71 1 3.0 8.0 0.00 5.04 0.00 51 1016.8
20260901064004 70 359 3.0 8.0 0.00 5.04 0.00 51 1016.7
20260901063604 70 7 2.0 8.0 0.00 5.04 0.00 51 1016.7
20260901062803 69 25 2.0 5.0 0.00 5.04 0.00 52 1016.7
20260901062404 69 19 2.0 5.0 0.00 5.04 0.00 53 1016.6
20260901062004 69 27 2.0 5.0 0.00 5.04 0.00 52 1016.5
20260901061603 69 58 2.0 4.0 0.00 5.04 0.00 53 1016.4
20260901061204 69 65 2.0 4.0 0.00 5.04 0.00 53 1016.4
20260901060805 69 57 2.0 4.0 0.00 5.04 0.00 54 1016.4
20260901060404 69 32 2.0 4.0 0.00 5.04 0.00 53 1016.4
20260901060005 69 33 2.0 4.0 0.00 5.04 0.00 53 1016.3
20260901055603 69 62 1.0 4.0 0.00 5.04 0.00 52 1016.3
20260901055204 69 85 1.0 4.0 0.00 5.04 0.00 52 1016.2
20260901054804 69 45 1.0 2.0 0.00 5.04 0.00 53 1016.1
20260901054404 68 48 1.0 2.0 0.00 5.04 0.00 55 1016.1
20260901053604 68 349 1.0 5.0 0.00 5.04 0.00 56 1016.0
20260901053204 68 345 2.0 5.0 0.00 5.04 0.00 56 1015.9
20260901052804 68 349 3.0 5.0 0.00 5.04 0.00 56 1015.7
20260901052404 68 6 2.0 5.0 0.00 5.04 0.00 57 1015.7
20260901051603 68 22 1.0 4.0 0.00 5.04 0.00 57 1015.5
20260901051203 69 53 1.0 4.0 0.00 5.04 0.00 53 1015.5
20260901050804 69 77 1.0 3.0 0.00 5.04 0.00 54 1015.4
20260901050404 69 41 1.0 4.0 0.00 5.04 0.00 55 1015.4
20260901050005 69 23 1.0 4.0 0.00 5.04 0.00 53 1015.3
20260901045605 69 67 1.0 4.0 0.00 5.04 0.00 53 1015.4
20260901045203 69 115 1.0 3.0 0.00 5.04 0.00 52 1015.2
20260901044405 68 212 2.0 5.0 0.00 5.04 0.00 56 1015.3
20260901044004 67 254 2.0 5.0 0.00 5.04 0.00 59 1015.3
20260901043603 68 320 3.0 7.0 0.00 5.04 0.00 59 1015.2
20260901043205 68 324 3.0 7.0 0.00 5.04 0.00 57 1015.1
20260901042804 67 327 2.0 7.0 0.00 5.04 0.00 58 1015.2
20260901042404 68 329 1.0 5.0 0.00 5.04 0.00 60 1015.0
20260901042005 69 343 1.0 5.0 0.00 5.04 0.00 54 1014.9
20260901041604 69 345 1.0 5.0 0.00 5.04 0.00 52 1014.8
20260901041205 69 2 1.0 3.0 0.00 5.04 0.00 54 1014.8
20260901040804 69 19 1.0 6.0 0.00 5.04 0.00 56 1014.7
20260901040403 69 27 2.0 6.0 0.00 5.04 0.00 53 1014.7
20260901040004 68 32 1.0 3.0 0.00 5.04 0.00 55 1014.7
20260901035603 68 192 1.0 7.0 0.00 5.04 0.00 59 1014.7
20260901035204 68 201 1.0 7.0 0.00 5.04 0.00 58 1014.6
20260901034804 69 238 1.0 4.0 0.00 5.04 0.00 58 1014.7
20260901034404 68 235 1.0 4.0 0.00 5.04 0.00 57 1014.7
20260901034004 68 232 1.0 4.0 0.00 5.04 0.00 60 1014.7
20260901033204 69 250 1.0 2.0 0.00 5.04 0.00 58 1014.7
20260901032803 69 235 0.0 2.0 0.00 5.04 0.00 59 1014.6
20260901032403 69 261 0.0 3.0 0.00 5.04 0.00 58 1014.5
20260901032004 69 163 1.0 5.0 0.00 5.04 0.00 58 1014.4
20260901031604 70 173 2.0 5.0 0.00 5.04 0.00 56 1014.3
20260901031204 69 207 1.0 5.0 0.00 5.04 0.00 55 1014.5
20260901030804 69 306 1.0 4.0 0.00 5.04 0.00 56 1014.4
20260901030403 69 321 1.0 4.0 0.00 5.04 0.00 59 1014.4
20260901030005 69 324 1.0 4.0 0.00 5.04 0.00 59 1014.5
20260901025603 69 358 1.0 3.0 0.00 5.04 0.00 58 1014.5
20260901025204 69 90 1.0 4.0 0.00 5.04 0.00 57 1014.5
20260901024804 69 145 1.0 4.0 0.00 5.04 0.00 59 1014.4
20260901024004 68 321 1.0 5.0 0.00 5.04 0.00 59 1014.5
20260901023603 69 15 1.0 5.0 0.00 5.04 0.00 61 1014.5
20260901023204 69 132 1.0 4.0 0.00 5.04 0.00 59 1014.4
20260901022804 69 160 1.0 4.0 0.00 5.04 0.00 58 1014.4
20260901022404 68 211 1.0 4.0 0.00 5.04 0.00 59 1014.4
20260901022004 69 264 1.0 4.0 0.00 5.04 0.00 59 1014.4
20260901021604 69 289 1.0 3.0 0.00 5.04 0.00 59 1014.4
20260901021204 69 278 1.0 3.0 0.00 5.04 0.00 61 1014.4
20260901020804 69 268 1.0 3.0 0.00 5.04 0.00 61 1014.3
20260901020404 69 260 1.0 3.0 0.00 5.04 0.00 59 1014.4
20260901020004 69 262 1.0 3.0 0.00 5.04 0.00 59 1014.3
20260901015603 69 253 1.0 4.0 0.00 5.04 0.00 59 1014.3
20260901015203 70 223 1.0 4.0 0.00 5.04 0.00 59 1014.3
20260901014804 70 235 1.0 4.0 0.00 5.04 0.00 58 1014.3
20260901014404 70 284 1.0 2.0 0.00 5.04 0.00 58 1014.4
20260901014004 70 255 1.0 4.0 0.00 5.04 0.00 59 1014.4
20260901013604 70 246 1.0 4.0 0.00 5.04 0.00 58 1014.4
20260901012804 70 250 1.0 4.0 0.00 5.04 0.00 59 1014.4
20260901012403 70 243 1.0 3.0 0.00 5.04 0.00 54 1014.4
20260901012005 70 273 1.0 2.0 0.00 5.04 0.00 58 1014.4
20260901011603 71 229 1.0 2.0 0.00 5.04 0.00 54 1014.3
20260901011204 71 219 1.0 4.0 0.00 5.04 0.00 58 1014.4
20260901010804 71 210 1.0 4.0 0.00 5.04 0.00 52 1014.4
20260901010403 71 243 1.0 4.0 0.00 5.04 0.00 56 1014.3
20260901010004 71 234 1.0 4.0 0.00 5.04 0.00 56 1014.3
20260901005605 71 236 1.0 4.0 0.00 5.04 0.00 53 1014.1
20260901005204 71 221 1.0 4.0 0.00 5.04 0.00 54 1014.3
20260901004804 71 207 2.0 4.0 0.00 5.04 0.00 58 1014.2
20260901004004 71 213 1.0 4.0 0.00 5.04 0.00 56 1014.2
20260901003604 71 255 1.0 3.0 0.00 5.04 0.00 56 1014.2
20260901002404 72 285 1.0 6.0 0.00 5.04 0.00 53 1014.2
20260901002004 71 308 1.0 6.0 0.00 5.04 0.00 56 1014.3
20260901000803 71 197 0.0 3.0 0.00 5.04 0.00 58 1014.2
20260901000405 71 212 1.0 3.0 0.00 5.04 0.00 59 1014.1
20260831235604 73 324 1.0 4.0 0.00 5.04 0.00 52 1014.0
20260831235204 73 211 1.0 4.0 0.00 5.04 0.00 56 1014.0
20260831234803 73 189 1.0 4.0 0.00 5.04 0.00 53 1014.1
20260831234404 73 167 1.0 3.0 0.00 5.04 0.00 53 1014.1
20260831234005 73 104 1.0 6.0 0.00 5.04 0.00 52 1013.9
20260831233604 73 106 1.0 6.0 0.00 5.04 0.00 55 1013.8
20260831233204 72 131 1.0 3.0 0.00 5.04 0.00 57 1013.9
20260831232803 72 265 1.0 4.0 0.00 5.04 0.00 57 1013.9
20260831232404 72 261 1.0 4.0 0.00 5.04 0.00 59 1014.0
20260831232004 72 213 1.0 4.0 0.00 5.04 0.00 59 1013.8
20260831231604 72 266 2.0 4.0 0.00 5.04 0.00 58 1013.9
20260831231205 72 302 1.0 4.0 0.00 5.04 0.00 61 1013.9
20260831230805 72 325 1.0 4.0 0.00 5.04 0.00 61 1013.9
20260831230404 72 321 1.0 4.0 0.00 5.04 0.00 60 1013.9
20260831230005 72 351 1.0 4.0 0.00 5.04 0.00 63 1013.8
20260831225204 73 319 1.0 5.0 0.00 5.04 0.00 56 1013.8
20260831224804 73 276 1.0 5.0 0.00 5.04 0.00 57 1013.7
20260831224004 74 347 2.0 6.0 0.00 5.04 0.00 56 1013.7
20260831223603 74 342 2.0 6.0 0.00 5.04 0.00 56 1013.6
20260831223204 73 293 1.0 4.0 0.00 5.04 0.00 62 1013.8
20260831222804 73 295 1.0 4.0 0.00 5.04 0.00 58 1013.7
20260831222403 73 327 1.0 5.0 0.00 5.04 0.00 63 1013.7
20260831222004 73 349 1.0 5.0 0.00 5.04 0.00 61 1013.6
20260831221604 74 1 2.0 5.0 0.00 5.04 0.00 57 1013.6
20260831221205 74 10 1.0 4.0 0.00 5.04 0.00 61 1013.7
20260831220804 73 44 1.0 5.0 0.00 5.04 0.00 60 1013.6
20260831220404 74 56 2.0 6.0 0.00 5.04 0.00 62 1013.6
20260831220008 73 39 2.0 6.0 0.00 5.04 0.00 63 1013.5
20260831215604 73 329 1.0 5.0 0.00 5.04 5.04 66 1013.5
20260831215204 73 54 1.0 4.0 0.00 5.04 5.04 67 1013.6
20260831214803 73 187 1.0 5.0 0.00 5.04 5.04 71 1013.5
20260831214403 73 222 2.0 5.0 0.00 5.04 5.04 68 1013.6
20260831214004 72 224 2.0 5.0 0.00 5.04 5.04 73 1013.6
20260831213603 72 248 2.0 4.0 0.00 5.04 5.04 74 1013.5
20260831213204 72 242 2.0 5.0 0.00 5.04 5.04 73 1013.6
20260831212803 72 246 3.0 5.0 0.00 5.04 5.04 73 1013.6
20260831212404 73 225 2.0 5.0 0.00 5.04 5.04 72 1013.6
20260831212004 73 188 3.0 7.0 0.00 5.04 5.04 72 1013.5
20260831210803 72 224 2.0 6.0 0.00 5.04 5.04 74 1013.5
20260831210404 72 211 3.0 7.0 0.00 5.04 5.04 74 1013.5
20260831210004 72 215 4.0 7.0 0.00 5.04 5.04 73 1013.5
20260831205604 73 214 3.0 6.0 0.00 5.04 5.04 71 1013.5
20260831205203 73 246 2.0 5.0 0.00 5.04 5.04 71 1013.5
20260831204003 73 302 2.0 6.0 0.00 5.04 5.04 72 1013.4
20260831203604 73 282 3.0 6.0 0.00 5.04 5.04 73 1013.3
20260831203204 73 244 4.0 9.0 0.00 5.04 5.04 72 1013.2
20260831202803 73 228 5.0 9.0 0.00 5.04 5.04 72 1013.2
20260831202405 74 232 5.0 9.0 0.00 5.04 5.04 71 1013.1
20260831202004 74 241 4.0 7.0 0.00 5.04 5.04 71 1013.1
20260831201604 74 242 3.0 5.0 0.00 5.04 5.04 71 1013.1
20260831201204 74 242 3.0 6.0 0.00 5.04 5.04 71 1013.1
20260831200803 74 253 3.0 6.0 0.00 5.04 5.04 71 1013.1
20260831200405 74 254 2.0 6.0 0.00 5.04 5.04 71 1012.9
20260831200004 74 262 2.0 6.0 0.00 5.04 5.04 72 1012.9
20260831195605 74 274 2.0 6.0 0.00 5.04 5.04 72 1012.7
20260831195204 74 292 1.0 4.0 0.00 5.04 5.04 72 1012.7
20260831194805 74 259 2.0 5.0 0.00 5.04 5.04 72 1012.7
20260831194403 75 233 2.0 5.0 0.00 5.04 5.04 71 1012.5
20260831194004 75 219 2.0 5.0 0.00 5.04 5.04 71 1012.5
20260831193603 75 213 3.0 6.0 0.00 5.04 5.04 71 1012.4
20260831193204 75 217 2.0 6.0 0.00 5.04 5.04 71 1012.3
20260831192803 75 220 1.0 5.0 0.00 5.04 5.04 70 1012.2
20260831192404 76 207 1.0 4.0 0.00 5.04 5.04 70 1012.2
20260831192003 75 212 2.0 4.0 0.00 5.04 5.04 70 1012.3
20260831191606 75 220 3.0 6.0 0.00 5.04 5.04 70 1012.2
20260831191204 75 223 3.0 6.0 0.00 5.04 5.04 70 1012.2
20260831190805 75 226 3.0 6.0 0.00 5.04 5.04 70 1012.1
20260831190405 76 224 3.0 7.0 0.00 5.04 5.04 70 1012.0
20260831190006 76 220 3.0 7.0 0.00 5.04 5.04 70 1012.0
20260831185604 76 220 2.0 7.0 0.00 5.04 5.04 70 1012.0
20260831185205 76 234 1.0 4.0 0.00 5.04 5.04 69 1011.9
20260831184805 76 247 1.0 3.0 0.00 5.04 5.04 69 1011.9
20260831184006 76 264 1.0 3.0 0.00 5.04 5.04 69 1011.9
20260831183205 77 277 2.0 5.0 0.00 5.04 5.04 69 1011.6
20260831182804 76 249 3.0 6.0 0.00 5.04 5.04 69 1011.6
20260831182405 77 237 4.0 7.0 0.00 5.04 5.04 69 1011.5
20260831182005 77 239 4.0 7.0 0.00 5.04 5.04 69 1011.4
20260831181204 78 238 4.0 8.0 0.00 5.04 5.04 68 1011.3
20260831180805 78 224 4.0 8.0 0.00 5.04 5.04 67 1011.2
20260831180404 78 222 4.0 8.0 0.00 5.04 5.04 67 1011.1
20260831180006 78 221 4.0 8.0 0.00 5.04 5.04 66 1011.2
20260831175604 78 219 4.0 8.0 0.00 5.04 5.04 66 1011.1
20260831174805 78 222 4.0 8.0 0.00 5.04 5.04 66 1011.1
20260831174405 78 228 3.0 7.0 0.00 5.04 5.04 66 1011.1
20260831173604 79 229 4.0 7.0 0.00 5.04 5.04 66 1011.0
20260831173205 79 227 4.0 7.0 0.00 5.04 5.04 66 1011.0
20260831172404 79 220 4.0 7.0 0.00 5.04 5.04 67 1011.1
20260831172005 79 217 5.0 7.0 0.00 5.04 5.04 66 1011.0
20260831171605 80 213 5.0 7.0 0.00 5.04 5.04 66 1011.0
20260831171205 80 210 4.0 7.0 0.00 5.04 5.04 64 1011.0
20260831170805 80 213 4.0 7.0 0.00 5.04 5.04 63 1011.1
20260831170404 80 222 3.0 5.0 0.00 5.04 5.04 64 1011.1
20260831165605 80 232 3.0 6.0 0.00 5.04 5.04 62 1011.1
20260831165205 80 234 4.0 6.0 0.00 5.04 5.04 62 1011.1
20260831164804 81 232 4.0 5.0 0.00 5.04 5.04 62 1011.1
20260831164405 81 220 4.0 7.0 0.00 5.04 5.04 62 1011.0
20260831164005 81 209 4.0 7.0 0.00 5.04 5.04 62 1011.0
20260831163605 81 219 4.0 7.0 0.00 5.04 5.04 61 1011.0
20260831163204 81 237 2.0 5.0 0.00 5.04 5.04 61 1011.1
20260831162805 82 239 3.0 6.0 0.00 5.04 5.04 61 1011.0
20260831162405 82 221 3.0 6.0 0.00 5.04 5.04 61 1011.0
20260831162005 82 213 3.0 6.0 0.00 5.04 5.04 60 1011.0
20260831161604 83 215 3.0 6.0 0.00 5.04 5.04 59 1010.9
20260831161204 83 227 3.0 6.0 0.00 5.04 5.04 58 1011.1
20260831160805 83 235 3.0 6.0 0.00 5.04 5.04 58 1011.1
20260831160405 83 234 3.0 6.0 0.00 5.04 5.04 58 1011.1
20260831155605 84 205 4.0 6.0 0.00 5.04 5.04 57 1011.0
20260831155204 84 204 3.0 6.0 0.00 5.04 5.04 56 1011.0
20260831154805 84 200 2.0 5.0 0.00 5.04 5.04 56 1011.0
20260831154404 84 201 1.0 4.0 0.00 5.04 5.04 54 1011.0
20260831154005 84 220 1.0 4.0 0.00 5.04 5.04 56 1011.2
20260831153605 85 285 1.0 3.0 0.00 5.04 5.04 56 1011.1
20260831152806 84 293 0.0 2.0 0.00 5.04 5.04 54 1011.0
20260831152404 84 285 1.0 3.0 0.00 5.04 5.04 55 1011.2
20260831152005 84 275 1.0 3.0 0.00 5.04 5.04 55 1011.2
20260831151205 85 258 0.0 2.0 0.00 5.04 5.04 54 1011.3
20260831150805 84 226 1.0 2.0 0.00 5.04 5.04 53 1011.3
20260831150405 85 146 1.0 5.0 0.00 5.04 5.04 53 1011.2
20260831150005 85 110 2.0 5.0 0.00 5.04 5.04 50 1011.1
20260831145605 85 85 2.0 5.0 0.00 5.04 5.04 49 1011.2
20260831145204 85 78 2.0 4.0 0.00 5.04 5.04 49 1011.1
20260831144005 85 89 4.0 7.0 0.00 5.04 5.04 50 1011.3
20260831143205 85 90 4.0 8.0 0.00 5.04 5.04 50 1011.3
20260831142804 85 83 4.0 9.0 0.00 5.04 5.04 50 1011.2
20260831142406 85 78 5.0 9.0 0.00 5.04 5.04 50 1011.2
20260831142006 85 75 5.0 8.0 0.00 5.04 5.04 50 1011.4
20260831141205 86 69 4.0 8.0 0.00 5.04 5.04 49 1011.1
20260831140805 86 70 3.0 8.0 0.00 5.04 5.04 49 1011.2
20260831140404 87 46 3.0 9.0 0.00 5.04 5.04 48 1011.0
20260831140005 86 55 4.0 9.0 0.00 5.04 5.04 50 1011.2
20260831135604 85 75 4.0 8.0 0.00 5.04 5.04 50 1011.2
20260831135205 85 90 5.0 10.0 0.00 5.04 5.04 49 1011.2
20260831134404 86 88 6.0 10.0 0.00 5.04 5.04 49 1011.1
20260831133604 86 90 6.0 10.0 0.00 5.04 5.04 50 1011.2
20260831133205 86 96 5.0 10.0 0.00 5.04 5.04 50 1011.3
20260831132404 85 72 6.0 11.0 0.00 5.04 5.04 51 1011.4
20260831132005 85 81 7.0 11.0 0.00 5.04 5.04 53 1011.4
20260831131605 85 85 6.0 11.0 0.00 5.04 5.04 52 1011.4
20260831131205 86 82 4.0 11.0 0.00 5.04 5.04 51 1011.3
20260831130805 87 73 5.0 9.0 0.00 5.04 5.04 54 1011.4
20260831130404 85 71 5.0 8.0 0.00 5.04 5.04 54 1011.5
20260831130005 86 76 5.0 8.0 0.00 5.04 5.04 53 1011.5
20260831125604 85 92 5.0 10.0 0.00 5.04 5.04 54 1011.6
20260831125205 85 88 6.0 10.0 0.00 5.04 5.04 54 1011.6
20260831124806 85 88 6.0 10.0 0.00 5.04 5.04 54 1011.7
20260831124405 85 87 6.0 10.0 0.00 5.04 5.04 54 1011.7
20260831124005 84 92 6.0 10.0 0.00 5.04 5.04 54 1011.7
20260831123605 85 91 4.0 10.0 0.00 5.04 5.04 53 1011.8
20260831123205 85 89 2.0 10.0 0.00 6.04 5.04 53 1011.7
20260831122805 85 93 3.0 9.0 0.00 6.05 5.04 53 1011.8
20260831122404 85 102 5.0 9.0 0.00 6.05 5.04 53 1011.7
20260831122005 85 104 6.0 9.0 0.00 6.05 5.04 53 1011.7
20260831121604 85 98 6.0 9.0 0.00 6.05 5.04 53 1011.8
20260831121205 84 88 6.0 7.0 0.00 6.05 5.04 54 1011.9
20260831120404 84 55 5.0 9.0 0.00 7.06 5.04 54 1011.9
20260831120005 84 41 4.0 9.0 0.00 7.06 5.04 54 1011.9
20260831115604 84 50 4.0 8.0 0.00 7.06 5.04 53 1012.0
20260831115205 84 89 4.0 9.0 0.00 7.06 5.04 53 1012.0
20260831114805 84 95 5.0 11.0 0.00 7.06 5.04 54 1012.0
20260831114404 84 90 7.0 11.0 0.00 7.06 5.04 54 1012.0
20260831114005 83 83 7.0 11.0 0.00 7.06 5.04 55 1012.2
20260831113604 83 87 6.0 12.0 1.00 7.06 5.04 53 1012.1
20260831112804 83 93 6.0 12.0 1.00 8.06 5.04 53 1012.3
20260831112404 83 83 5.0 11.0 1.00 9.07 5.04 52 1012.3
20260831111204 84 87 4.0 10.0 1.01 1.00 5.04 52 1012.4
20260831110804 84 76 4.0 10.0 1.01 1.00 5.04 51 1012.4
20260831110404 83 78 6.0 10.0 1.01 1.00 5.04 52 1012.4
20260831110004 83 78 5.0 10.0 1.01 1.00 5.04 52 1012.5
20260831105204 84 47 4.0 8.0 2.01 1.00 5.04 52 1012.4
20260831104805 83 38 4.0 8.0 2.01 1.00 5.04 53 1012.6
20260831104404 83 33 3.0 8.0 2.02 1.00 5.04 51 1012.6
20260831103205 82 0 0.0 0.0 2.02 1.00 4.04 54 1012.6
20260831102805 82 104 2.0 5.0 2.02 1.10 4.04 54 1012.6
20260831102404 82 91 3.0 5.0 2.02 1.10 4.04 54 1012.8
20260831102005 83 88 3.0 5.0 2.02 1.10 4.03 54 1012.8
20260831101604 82 45 3.0 5.0 2.02 1.20 4.03 53 1012.8
20260831100805 82 110 4.0 8.0 2.02 1.41 4.03 53 1012.8
20260831100405 82 113 3.0 8.0 2.02 1.41 4.03 54 1012.8
20260831100004 81 77 3.0 7.0 2.02 1.41 4.03 54 1012.9
20260831095605 81 53 2.0 6.0 3.02 1.51 4.03 56 1012.9
20260831095205 81 67 2.0 6.0 2.02 1.51 3.03 61 1012.9
20260831094804 81 35 2.0 5.0 2.02 1.51 3.03 61 1013.0
20260831094405 81 24 3.0 5.0 2.02 1.51 3.02 61 1013.0
20260831094006 80 41 3.0 5.0 2.02 1.51 3.02 61 1013.1
20260831093605 81 101 2.0 5.0 1.02 1.51 2.02 58 1013.2
20260831093205 81 108 2.0 6.0 1.01 1.51 2.02 58 1013.1